Flag for U.S.A. Weather past 2 weeks in Stamford, Connecticut, U.S.A.

Now
34 °F

Partly sunny.


Feels Like: 25 °F
Forecast: 30 / 38 °F
Wind: 12 mph from Northwest

Location: Westchester County Airport

Current Time: Dec 19, 2014 at 4:28:14 PM

Latest Report: Dec 19, 2014 at 3:56 PM


Visibility: 10 mi

Pressure: 30.05 "Hg

Humidity: 56%

Dew point: 20 °F

Location of StamfordLocation

Historic Weather in Stamford — Graph

°F

Stamford temperature yesterday

Maximum temperature yesterday: 40 °F (at 12:56 AM)
Minimum temperature yesterday: 34 °F (at 11:56 PM)
Average temperature yesterday: 37 °F

Past Weeks' High & Low Weather Summary

 TemperatureHumidityPressure
High50 °F (Dec 17, 11:56 AM)100% (Dec 6, 7:56 AM)30.71 "Hg (Dec 6, 7:56 AM)
Low20 °F (Dec 8, 5:56 AM)23% (Dec 7, 10:56 PM)29.54 "Hg (Dec 10, 2:56 PM)
Average36 °F72%30.05 "Hg
* Reported Dec 4 2:56 PM — Dec 19 2:56 PM, Stamford, Weather by CustomWeather, © 2014

Note: Actual official high and low records may vary slightly from our data, if they occured in-between our weather recording intervals... More about our weather records

Advertising

Stamford weather history for previous 24 hours

 ConditionsComfort  
Time TempWeatherWind HumidityBarometerVisibility
2:56 PM
Dec 19
35 °FPartly sunny.13 mph54%30.04 "Hg10 mi
1:56 PM36 °FScattered clouds.14 mph52%30.01 "Hg10 mi
12:56 PM36 °FScattered clouds.16 mph52%30.01 "Hg10 mi
11:56 AM35 °FPartly sunny.14 mph54%30.02 "Hg10 mi
10:56 AM34 °FPartly sunny.13 mph59%30.04 "Hg10 mi
9:56 AM34 °FPartly sunny.14 mph59%30.05 "Hg10 mi
8:56 AM34 °FPartly sunny.10 mph61%30.03 "Hg10 mi
7:56 AM34 °FPartly sunny.14 mph61%30.01 "Hg10 mi
6:56 AM35 °FPassing clouds.15 mph61%29.98 "Hg10 mi
5:56 AM35 °FPassing clouds.13 mph61%29.97 "Hg10 mi
4:56 AM35 °FPassing clouds.13 mph64%29.96 "Hg10 mi
3:56 AM35 °FPassing clouds.15 mph64%29.95 "Hg10 mi
2:56 AM35 °FPassing clouds.14 mph67%29.95 "Hg10 mi
1:56 AM35 °FPassing clouds.10 mph67%29.95 "Hg10 mi
12:56 AM35 °FPassing clouds.9 mph67%29.94 "Hg10 mi
11:56 PM
Dec 18
34 °FClear.10 mph70%29.94 "Hg10 mi
10:56 PM35 °FClear.12 mph70%29.95 "Hg10 mi
9:56 PM35 °FClear.13 mph70%29.95 "Hg10 mi
8:56 PM35 °FPassing clouds.12 mph70%29.94 "Hg10 mi
7:56 PM36 °FPassing clouds.15 mph67%29.95 "Hg10 mi
6:56 PM36 °FPassing clouds.13 mph67%29.95 "Hg10 mi
5:56 PM36 °FPassing clouds.14 mph67%29.94 "Hg10 mi
4:56 PM36 °FPassing clouds.15 mph64%29.94 "Hg10 mi
Weather by CustomWeather, © 2014

See weather overviewHow to use our weather pages